Location: Fontevrault
(47.1823°N, 0.0493°E)
Time: 03:27:15
(UTC+00:00)

Cosmos 1459 Rocket - Pass Details

Date: 20 October 2021
Orbit: 936 x 1000 km, 83.0° (Epoch: 01 December)

Event Time Altitude Azimuth Distance (km) Brightness Sun altitude
Exits shadow 18:39:46 14° 47° (NE) 2,427 5.7 -17.1°
Drops below altitude 10° 18:40:57 10° 38° (NE) 2,698 6.0 -17.3°
Sets 18:44:08 0° 22° (NNE) 3,638 6.8 -17.9°
